Location: Bartshausen
(51.8454°N, 9.8167°E)
Time: 21:52:50
(UTC+00:00)

Iridium 4 Rocket - Pass Details

Date: 23 February 2026
Orbit: 579 x 887 km, 86.9° (Epoch: 11 March)

Event Time Altitude Azimuth Distance (km) Brightness Sun altitude
Rises 17:38:13 0° 4° (N) 2,977 6.5 -8.2°
Reaches altitude 10° 17:40:54 10° 19° (NNE) 2,015 5.5 -8.6°
Maximum altitude 17:44:29 24° 73° (ENE) 1,271 4.1 -9.2°
Drops below altitude 10° 17:47:54 10° 129° (SE) 1,916 5.1 -9.7°
Sets 17:50:22 0° 143° (SE) 2,795 6.1 -10.1°
